Date String (YYYY-MM-DD hh:mm:ss) UTC,Instrument flags,Ambient pressure (hPa),Sample flow (lpm),Bypass flow (lpm),Sample temperature (°C),Ambient temperature (°C),ASC tube jacket temperature (°C),LED temperature (°C),Box temperature (°C),Sample RH (%),Span deviation,Mass concentration (μg/m³),Mass concentration (μg/m³),Mass concentration (μg/m³)
DateTimeUTC,F1_M11,P_M11,Q1_M11,Q2_M11,T1_M11,T2_M11,T3_M11,T4_M11,T5_M11,U1_M11,ZSPAN_M11,X0_M11,X2_M11,X1_M11
2023-04-06 18:00:00,,0834.8,5.00,0.00,22.1,20.6,00.0,30.5,23.6,08.0,0000.0,0003.97,0001.50,0000.95
2023-04-06 18:01:00,,0835.1,5.00,0.00,22.1,20.5,00.0,30.5,23.6,07.4,0000.0,0003.98,0001.48,0000.95
2023-04-06 18:02:00,,0834.9,5.01,0.00,22.1,20.5,00.0,30.5,23.5,07.8,0000.0,0004.00,0001.47,0000.95
2023-04-06 18:03:00,,0834.9,4.99,0.00,22.1,20.5,00.0,30.5,23.5,07.8,0000.0,0004.65,0001.46,0000.96
2023-04-06 18:04:00,,0835.2,5.00,0.00,22.1,20.4,00.0,30.5,23.5,07.6,0000.0,0004.73,0001.45,0000.96
2023-04-06 18:05:00,,0835.3,5.00,0.00,22.1,20.4,00.0,30.5,23.5,08.0,0000.0,0004.58,0001.40,0000.94
2023-04-06 18:06:00,,0835.2,5.01,0.00,22.1,20.4,00.0,30.4,23.5,08.0,0000.0,0004.48,0001.38,0000.93
2023-04-06 18:07:00,,0834.9,5.01,0.00,22.1,20.4,00.0,30.4,23.4,07.5,0000.0,0003.43,0001.36,0000.93
2023-04-06 18:08:00,,0834.8,4.99,0.00,22.1,20.4,00.0,30.4,23.4,07.2,0000.0,0003.18,0001.31,0000.92
2023-04-06 18:09:00,,0835.1,5.00,0.00,22.0,20.3,00.0,30.4,23.4,07.3,0000.0,0003.21,0001.32,0000.92
2023-04-06 18:10:00,,0834.9,5.00,0.00,22.0,20.3,00.0,30.4,23.4,07.6,0000.0,0003.16,0001.30,0000.91
2023-04-06 18:11:00,,0835.4,5.00,0.00,22.0,20.2,00.0,30.4,23.4,07.3,0000.0,0003.40,0001.37,0000.92
2023-04-06 18:12:00,,0835.3,5.01,0.00,22.0,20.3,00.0,30.4,23.4,07.6,0000.0,0003.44,0001.40,0000.93
2023-04-06 18:13:00,,0835.3,5.00,0.00,22.0,20.3,00.0,30.4,23.4,08.3,0000.0,0003.64,0001.49,0000.95
2023-04-06 18:14:00,,0835.2,5.01,0.00,22.0,20.3,00.0,30.4,23.4,08.4,0000.0,0002.87,0001.50,0000.96
2023-04-06 18:15:00,,0835.3,5.00,0.00,22.0,20.3,00.0,30.4,23.4,08.1,0000.0,0002.73,0001.50,0000.98
2023-04-06 18:16:00,,0835.3,4.99,0.00,22.0,20.2,00.0,30.3,23.3,08.3,0000.0,0002.87,0001.53,0001.00
2023-04-06 18:17:00,,0835.4,5.01,0.00,21.9,20.2,00.0,30.3,23.3,07.8,0000.0,0003.23,0001.59,0001.01
2023-04-06 18:18:00,,0835.3,5.01,0.00,21.9,20.1,00.0,30.3,23.3,07.6,0000.0,0003.46,0001.65,0001.04
2023-04-06 18:19:00,,0835.3,4.98,0.00,21.9,20.1,00.0,30.3,23.3,08.2,0000.0,0003.48,0001.67,0001.07
2023-04-06 18:20:00,,0835.2,4.99,0.00,21.9,20.0,00.0,30.3,23.3,08.1,0000.0,0003.55,0001.71,0001.08
2023-04-06 18:21:00,,0835.3,5.01,0.00,21.9,20.0,00.0,30.3,23.2,07.4,0000.0,0003.75,0001.76,0001.11
2023-04-06 18:22:00,,0834.9,5.01,0.00,21.9,20.0,00.0,30.3,23.3,07.4,0000.0,0003.81,0001.80,0001.13
2023-04-06 18:23:00,,0834.8,5.00,0.00,21.9,20.1,00.0,30.3,23.3,07.7,0000.0,0004.02,0001.86,0001.15
2023-04-06 18:24:00,,0834.7,5.00,0.00,21.9,20.1,00.0,30.3,23.3,07.3,0000.0,0004.41,0001.82,0001.15
2023-04-06 18:25:00,,0834.7,5.00,0.00,21.9,20.1,00.0,30.3,23.3,07.8,0000.0,0004.39,0001.79,0001.15
2023-04-06 18:26:00,,0834.7,5.00,0.00,21.9,20.2,00.0,30.2,23.3,07.7,0000.0,0004.52,0001.81,0001.15
2023-04-06 18:27:00,,0834.9,4.99,0.00,21.9,20.2,00.0,30.2,23.3,07.6,0000.0,0004.75,0001.88,0001.17
2023-04-06 18:28:00,,0834.9,5.00,0.00,21.9,20.2,00.0,30.2,23.3,07.9,0000.0,0004.51,0001.84,0001.16
2023-04-06 18:29:00,,0835.0,5.01,0.00,21.9,20.2,00.0,30.2,23.2,08.3,0000.0,0004.03,0001.77,0001.16
2023-04-06 18:30:00,,0834.8,5.01,0.00,21.9,20.1,00.0,30.2,23.3,08.2,0000.0,0004.26,0001.74,0001.17
2023-04-06 18:31:00,,0835.0,4.98,0.00,21.8,20.1,00.0,30.2,23.3,08.4,0000.0,0005.22,0001.75,0001.17
2023-04-06 18:32:00,,0835.1,5.01,0.00,21.8,20.1,00.0,30.2,23.3,08.1,0000.0,0005.64,0001.73,0001.17
2023-04-06 18:33:00,,0834.8,5.01,0.00,21.8,20.1,00.0,30.2,23.2,07.9,0000.0,0005.52,0001.71,0001.18
2023-04-06 18:34:00,,0835.0,5.01,0.00,21.8,20.1,00.0,30.2,23.3,08.2,0000.0,0005.75,0001.76,0001.19
2023-04-06 18:35:00,,0835.0,4.99,0.00,21.8,20.1,00.0,30.2,23.2,08.3,0000.0,0005.16,0001.78,0001.21
2023-04-06 18:36:00,,0835.0,4.99,0.00,21.8,20.2,00.0,30.2,23.2,07.4,0000.0,0005.33,0001.83,0001.24
2023-04-06 18:37:00,,0835.1,5.01,0.00,21.8,20.2,00.0,30.2,23.2,06.9,0000.0,0005.62,0001.85,0001.26
2023-04-06 18:38:00,,0835.0,5.01,0.00,21.8,20.1,00.0,30.2,23.2,06.8,0000.0,0005.45,0001.81,0001.25
2023-04-06 18:39:00,,0834.6,5.00,0.00,21.8,20.1,00.0,30.1,23.2,06.8,0000.0,0005.57,0001.86,0001.27
2023-04-06 18:40:00,,0834.9,5.01,0.00,21.9,21.2,00.0,30.1,23.7,07.6,0000.0,0005.61,0001.87,0001.28
2023-04-06 18:41:00,,0834.9,4.99,0.00,22.0,22.6,00.0,30.1,24.1,07.9,0000.0,0005.32,0001.89,0001.29
2023-04-06 18:42:00,,0834.9,4.99,0.00,22.2,22.8,00.0,30.2,24.1,07.5,0000.0,0005.05,0001.92,0001.31
2023-04-06 18:43:00,,0835.1,4.98,0.00,22.2,22.5,00.0,30.3,23.9,07.4,0000.0,0004.51,0001.91,0001.31
2023-04-06 18:44:00,,0835.1,5.01,0.00,22.2,22.1,00.0,30.3,23.8,07.5,0000.0,0004.42,0001.88,0001.31
2023-04-06 18:45:00,,0834.6,5.01,0.00,22.2,21.8,00.0,30.3,23.7,06.8,0000.0,0004.36,0001.79,0001.31
2023-04-06 18:46:00,,0834.7,5.00,0.00,22.2,21.5,00.0,30.4,23.7,06.9,0000.0,0004.52,0001.76,0001.31
2023-04-06 18:47:00,,0834.7,5.00,0.00,22.2,21.3,00.0,30.4,23.6,07.3,0000.0,0004.48,0001.76,0001.30
2023-04-06 18:48:00,,0834.8,4.99,0.00,22.2,21.1,00.0,30.4,23.7,07.3,0000.0,0004.16,0001.76,0001.29
2023-04-06 18:49:00,,0834.6,4.99,0.00,22.1,20.9,00.0,30.4,23.6,06.7,0000.0,0004.15,0001.80,0001.30
2023-04-06 18:50:00,,0835.0,5.00,0.00,22.1,20.8,00.0,30.4,23.6,06.8,0000.0,0004.18,0001.82,0001.32
2023-04-06 18:51:00,,0834.7,5.01,0.00,22.1,20.7,00.0,30.4,23.6,07.7,0000.0,0004.17,0001.84,0001.32
2023-04-06 18:52:00,,0834.9,5.01,0.00,22.1,20.7,00.0,30.4,23.5,07.0,0000.0,0004.27,0001.89,0001.33
2023-04-06 18:53:00,,0835.1,5.00,0.00,22.1,20.6,00.0,30.4,23.5,06.6,0000.0,0004.43,0001.89,0001.33
2023-04-06 18:54:00,,0834.6,5.00,0.00,22.1,20.5,00.0,30.4,23.5,07.1,0000.0,0004.67,0001.94,0001.34
2023-04-06 18:55:00,,0834.5,4.99,0.00,22.1,20.5,00.0,30.4,23.5,06.7,0000.0,0004.78,0001.98,0001.35
2023-04-06 18:56:00,,0834.5,5.00,0.00,22.1,20.5,00.0,30.4,23.6,06.5,0000.0,0004.77,0002.04,0001.36
2023-04-06 18:57:00,,0834.5,5.00,0.00,22.0,20.5,00.0,30.4,23.6,06.8,0000.0,0004.51,0002.09,0001.36
2023-04-06 18:58:00,,0834.5,4.99,0.00,22.1,20.5,00.0,30.4,23.6,06.9,0000.0,0005.05,0002.13,0001.37
2023-04-06 18:59:00,,0834.5,5.01,0.00,22.1,20.5,00.0,30.4,23.6,07.1,0000.0,0006.69,0002.16,0001.40
